Wind_Speed
112 112 111 111 111 111 110 109 109 108 109 109 109 109 110 112 113 113 113 111 110 110 110 110 110 110 109 108 107 106 105 104 102 101 100 99 99 98 97 97 96 95 93 92 91 90 89 88 87 85 84 83 82 81 80 78 77 76 75 74 73 73 72 72 72 71 71 70 69 68 67 66 66 65 65 64 64 63 63 63 63 63 63 63 64 65
113 113 113 112 112 112 112 111 110 110 110 110 110 111 111 112 113 114 114 113 112 112 111 111 110 110 109 108 107 106 105 104 102 101 100 99 99 98 97 97 96 95 93 92 91 90 89 87 86 85 83 82 81 80 79 78 77 76 75 74 73 72 72 72 72 72 71 70 69 68 67 66 66 65 65 65 65 65 65 65 65 65 65 66 67 67
115 115 114 114 114 114 114 113 112 111 111 111 112 112 112 113 113 114 114 114 113 113 112 111 111 110 109 108 107 106 105 104 102 101 100 99 99 98 97 96 95 94 93 92 90 89 88 87 85 84 83 82 81 80 79 78 77 76 75 74 73 73 73 73 72 72 71 70 69 68 67 66 66 66 66 66 66 66 67 67 67 68 68 68 69 69
116 116 116 116 116 116 115 115 114 112 112 112 113 113 113 113 114 114 114 114 114 113 113 112 111 110 109 108 107 106 104 103 102 101 100 99 98 98 97 96 95 93 92 91 90 89 87 86 85 84 83 82 81 80 79 78 77 76 75 75 74 74 73 72 71 70 70 69 68 68 67 67 67 67 67 68 68 69 69 69 70 70 70 71 71 72
118 117 117 117 116 117 117 116 116 115 113 113 114 114 114 114 114 115 115 115 114 114 113 112 111 110 108 107 106 105 104 103 102 101 100 99 98 97 96 95 94 93 91 90 89 88 87 86 85 84 83 82 81 80 79 78 77 77 76 76 75 74 72 70 69 69 68 68 68 69 69 69 69 69 70 70 71 71 71 72 72 72 72 73 73 73
119 118 117 117 117 117 117 117 117 116 115 115 115 115 115 115 115 115 115 115 114 114 113 112 111 110 108 107 106 105 104 103 102 101 99 98 97 96 95 94 93 92 90 89 88 87 86 85 84 83 82 81 80 80 79 79 78 78 77 76 74 72 70 69 68 68 68 69 70 71 71 71 72 72 72 72 73 73 73 73 73 74 74 74 75 75
119 119 118 117 117 117 117 117 117 117 116 116 116 116 116 116 116 115 115 115 114 113 112 112 111 109 108 107 106 105 104 102 101 100 99 98 97 95 94 93 92 91 89 88 87 86 85 84 83 82 82 81 80 80 79 79 79 78 76 75 73 71 70 69 69 69 70 71 72 73 74 74 74 74 74 74 74 74 74 74 74 75 75 76 76 76
119 119 118 118 118 118 117 117 117 117 117 117 116 116 116 116 116 115 115 114 113 112 112 111 110 109 108 107 106 104 103 102 101 100 98 97 96 94 93 92 91 89 88 87 86 85 84 83 82 82 81 81 80 80 80 79 79 78 76 74 72 71 71 70 71 71 72 73 74 74 75 75 75 75 75 75 75 75 75 75 76 76 76 77 77 78
119 119 118 118 118 118 118 118 118 117 117 117 116 116 116 116 116 115 114 113 113 112 110 110 109 108 107 106 105 104 103 102 100 99 97 96 95 93 92 91 89 88 87 86 85 84 83 83 82 82 81 81 81 80 80 80 79 78 76 75 73 73 72 72 72 72 73 73 74 75 75 75 76 76 76 76 76 76 76 76 77 77 78 78 79 79
118 118 118 118 117 117 117 117 118 117 117 117 116 116 116 115 115 114 114 113 112 111 109 108 107 107 106 105 104 103 102 100 99 98 96 95 93 92 90 89 88 87 86 85 84 84 83 83 82 82 82 82 82 81 81 80 79 78 77 76 76 75 74 74 74 74 74 74 74 75 76 76 77 77 77 77 78 78 78 79 79 79 80 80 80 81
117 117 117 117 117 117 117 117 117 117 117 117 116 116 115 115 114 113 112 111 111 110 109 107 107 105 105 104 103 102 100 99 98 96 95 93 92 91 89 88 87 86 85 85 84 84 84 84 84 84 83 83 83 82 81 80 80 79 78 78 78 77 77 76 76 76 76 76 76 76 77 78 79 79 80 80 80 81 81 81 81 82 82 82 82 82
116 116 116 116 116 116 116 116 116 116 116 116 115 115 115 114 113 111 111 110 109 109 108 107 106 105 104 103 102 101 100 98 97 96 95 93 92 91 90 89 88 87 87 86 86 86 85 85 85 85 84 84 83 83 82 81 81 80 80 80 79 79 79 79 79 78 78 78 79 79 80 80 81 82 82 83 83 84 84 84 84 84 84 84 84 84
115 115 115 115 115 115 115 115 115 115 115 115 114 114 113 113 111 110 109 109 109 108 107 106 105 104 103 102 101 100 99 98 97 96 95 94 93 92 91 90 90 89 88 88 87 87 87 86 86 86 85 85 84 84 83 83 82 82 82 82 82 82 82 82 82 82 82 82 82 82 83 83 84 84 85 86 86 86 87 86 86 86 86 86 86 86
114 114 114 114 114 114 114 114 114 114 113 113 113 112 111 111 110 109 109 108 108 107 106 105 104 104 103 102 100 99 98 97 96 96 95 94 94 93 92 92 91 91 90 90 89 89 88 88 88 87 87 86 86 86 85 85 85 85 85 85 85 85 85 85 85 85 85 85 85 86 86 86 86 87 88 88 89 89 89 89 89 88 88 87 87 87
113 113 113 113 113 113 112 112 112 112 112 111 111 110 110 109 109 108 108 107 107 106 105 104 103 103 102 101 100 98 97 97 96 95 95 95 94 94 93 93 93 92 92 91 91 91 91 90 90 90 90 89 89 89 89 88 88 88 88 88 88 88 89 89 89 89 89 89 89 89 88 88 89 89 89 90 90 90 90 90 90 89 89 88 88 87
111 111 111 111 111 111 111 111 110 110 110 110 110 109 109 108 108 108 107 107 106 105 104 104 103 102 101 100 99 98 97 97 97 96 96 96 95 95 95 94 94 94 94 94 94 94 93 93 93 93 92 92 92 92 91 91 91 91 91 91 91 91 91 91 91 92 91 91 91 91 91 90 90 90 90 91 91 91 91 91 90 90 89 88 88 87
109 109 109 109 109 109 110 109 109 109 109 109 109 108 108 108 108 107 107 106 105 105 104 103 102 101 101 100 100 99 99 98 98 98 97 97 97 97 97 97 96 97 96 96 96 96 96 96 95 95 94 94 94 94 93 93 93 93 93 93 93 93 93 93 93 93 93 93 92 92 92 91 91 91 90 90 90 90 90 90 90 90 89 88 87 87
107 108 108 108 108 108 108 108 108 108 108 108 108 108 108 107 107 106 106 105 105 104 103 102 102 101 101 101 101 101 100 100 100 100 99 100 99 99 99 98 98 98 98 98 98 98 98 97 97 96 96 95 95 95 94 94 94 94 94 94 94 94 94 94 94 93 93 93 93 93 92 92 91 91 90 90 90 90 90 89 89 89 89 88 88 87
106 106 106 107 107 107 107 107 107 108 108 108 107 107 107 107 106 106 105 105 104 104 103 103 103 102 102 102 103 103 102 102 102 102 101 101 101 100 100 100 100 100 100 99 99 99 99 98 98 97 97 96 96 96 95 95 95 94 94 94 94 94 94 94 94 94 94 94 94 93 93 93 92 92 91 90 90 90 89 89 89 89 89 89 88 88
105 105 105 106 106 106 106 107 107 107 107 107 106 106 106 106 106 106 106 106 105 105 105 104 104 104 104 104 104 104 103 103 103 103 103 102 102 101 101 100 101 101 100 100 100 100 99 99 99 99 98 98 97 97 96 96 96 95 95 95 95 95 95 95 95 95 95 94 94 94 94 94 93 93 92 92 91 90 90 90 90 89 89 89 89 89
104 104 105 105 105 105 105 106 106 106 106 106 106 106 106 106 106 106 107 107 106 106 106 106 106 105 105 105 105 105 104 104 104 104 104 103 103 102 101 101 101 101 101 101 100 100 100 100 100 100 99 99 99 98 98 97 97 97 96 96 96 96 96 96 96 96 96 96 95 95 95 95 95 94 94 93 93 92 92 91 91 91 90 90 90 90
102 103 104 104 104 104 105 105 105 106 106 106 106 106 107 107 107 108 108 108 108 108 107 107 107 106 105 105 105 105 105 105 105 105 104 104 103 103 103 102 102 102 102 102 102 101 101 101 101 101 101 101 101 100 100 99 99 98 98 98 97 97 97 97 97 97 97 97 97 97 97 97 96 96 96 96 95 95 94 94 93 93 92 92 92 92
102 102 103 103 103 104 104 105 106 106 106 107 107 107 108 108 108 109 109 109 108 108 108 107 107 106 106 106 106 106 106 106 106 105 105 105 105 104 104 103 103 104 104 104 103 103 103 103 103 103 103 103 103 103 102 102 101 101 101 100 100 100 100 100 99 99 99 99 99 99 99 99 99 99 99 98 98 98 97 97 96 95 95 94 94 94
102 102 103 103 104 104 105 106 106 107 107 107 108 108 108 109 109 109 109 109 109 109 108 108 107 107 107 107 107 107 107 107 107 107 107 107 106 106 105 105 105 106 106 106 105 105 105 106 106 105 105 105 105 105 105 105 104 104 104 103 103 103 103 102 102 102 101 101 101 101 101 101 101 101 101 101 101 100 100 100 99 98 98 97 96 96
102 103 104 104 105 105 106 106 107 107 108 108 108 109 109 109 109 109 109 109 109 109 109 109 109 109 109 108 108 109 109 109 109 108 108 109 108 108 107 107 107 108 108 108 107 107 107 108 108 108 108 108 108 108 108 107 107 107 106 106 106 106 106 105 105 104 104 104 103 103 103 103 103 103 103 103 103 103 103 102 102 101 100 100 99 98
103 104 104 105 105 106 106 106 107 107 107 108 109 109 110 110 110 110 110 111 111 110 110 110 110 110 110 110 110 110 111 111 111 111 111 111 111 110 110 109 109 110 110 110 110 109 109 110 110 110 110 110 110 110 110 110 110 110 109 109 109 109 108 108 108 107 107 106 106 105 105 105 105 105 105 105 105 105 105 105 105 104 103 102 101 100
104 104 105 105 105 106 106 107 107 108 108 109 109 110 110 110 111 112 112 112 112 112 111 111 111 111 111 111 112 112 112 113 113 113 113 113 113 113 113 112 112 112 112 112 112 111 111 111 112 112 112 112 113 113 113 113 113 112 112 112 112 111 111 110 110 109 109 108 108 108 107 107 107 107 107 107 107 107 107 107 107 106 105 105 104 103
104 105 105 106 106 107 107 108 108 109 109 110 110 111 111 111 112 113 114 114 113 113 113 113 113 113 113 113 113 113 113 114 115 115 115 115 115 115 116 115 114 114 115 115 114 113 113 113 113 113 114 114 114 114 115 115 115 115 114 114 114 113 113 113 112 112 112 111 111 110 109 109 109 109 109 109 109 109 109 109 109 108 108 107 106 105
105 106 106 107 108 108 109 109 110 110 111 111 112 112 113 113 113 114 115 115 114 114 115 115 114 114 114 114 114 114 115 116 116 117 116 116 117 118 118 117 117 116 117 116 116 115 115 114 114 115 115 115 116 116 117 117 117 117 117 116 116 116 116 115 115 115 114 114 113 113 112 112 111 111 111 111 111 111 111 111 111 110 110 109 108 107
107 107 108 109 110 110 110 111 111 112 112 113 113 114 114 114 115 115 116 116 116 116 116 116 116 116 115 115 115 116 116 117 118 118 117 118 119 120 120 119 118 118 118 118 118 118 117 117 116 116 116 117 118 118 119 119 119 119 119 118 118 118 118 118 118 117 117 117 116 115 115 114 114 113 113 112 112 112 112 112 112 112 112 111 110 110
108 109 110 111 111 112 112 113 113 114 114 114 115 115 116 116 116 116 117 117 117 117 117 117 117 117 117 117 117 117 118 119 119 118 119 120 121 122 121 121 120 120 120 119 120 120 120 119 118 118 118 119 119 120 120 120 120 121 121 121 120 120 120 120 120 120 119 119 119 118 117 117 116 115 115 114 114 114 113 113 113 113 113 113 112 112
109 110 111 111 112 113 114 114 115 115 116 116 117 117 117 118 118 118 118 118 118 118 118 118 118 118 118 118 118 119 119 120 120 120 120 121 122 123 122 122 121 121 121 121 120 121 122 121 120 120 119 120 121 121 122 122 122 122 122 122 122 122 122 122 121 121 121 121 121 120 119 119 118 117 116 116 115 115 115 114 114 114 114 114 114 114
109 110 111 112 113 114 114 115 116 116 117 118 118 119 119 119 120 120 120 120 120 120 120 120 120 120 119 119 119 119 120 121 121 121 121 122 123 123 123 122 122 122 122 121 121 121 121 121 121 121 120 121 121 122 122 123 123 123 123 124 124 123 123 123 122 123 123 123 122 122 121 120 119 118 118 117 116 116 115 115 115 115 115 115 115 115
110 111 112 113 114 114 115 116 117 117 118 119 119 120 120 121 121 121 122 122 121 121 121 121 121 121 121 120 120 120 121 121 121 121 121 122 123 123 123 122 121 121 121 121 121 120 120 120 120 120 120 120 120 121 122 123 124 124 124 124 124 124 124 123 123 123 123 123 123 122 121 121 120 119 118 118 117 117 116 116 116 116 116 116 116 116
112 112 113 114 115 115 116 117 117 118 119 119 120 121 121 122 122 122 123 123 123 123 122 122 122 122 122 121 121 121 121 122 121 121 121 121 122 122 122 121 120 120 120 120 119 119 118 118 117 117 118 118 119 120 120 122 123 123 124 124 124 124 124 123 123 123 123 123 123 122 121 120 120 119 118 118 117 117 116 116 116 116 116 116 116 115
113 114 115 115 116 116 117 117 118 119 119 120 120 121 121 122 122 123 123 123 123 123 123 122 122 121 121 121 121 121 121 121 120 120 120 120 120 120 120 119 118 117 117 117 117 117 116 116 115 114 115 116 117 117 118 119 120 121 122 122 122 122 122 122 122 122 122 122 121 121 120 119 119 118 117 117 116 116 116 115 115 115 115 115 115 114
115 115 116 116 116 117 117 118 118 119 119 120 120 120 121 121 121 121 122 122 122 122 121 121 121 120 120 119 119 119 119 119 119 119 118 118 117 117 117 116 115 115 114 115 114 114 113 113 112 112 112 112 113 114 115 115 116 117 118 119 119 119 119 119 119 120 120 119 119 118 117 117 116 116 115 115 114 114 114 114 114 114 114 114 113 113
115 115 116 116 116 116 117 117 118 118 118 118 119 119 119 119 119 119 119 119 119 119 119 119 118 118 117 117 116 116 116 116 116 115 115 114 114 113 113 112 112 111 111 111 110 110 110 110 109 109 109 109 109 109 110 111 111 112 113 113 114 114 115 115 115 116 116 115 115 114 114 113 113 112 112 112 111 111 111 111 111 111 111 111 111 111
114 114 115 115 115 115 115 116 116 116 116 116 116 116 117 117 116 116 116 116 116 116 115 115 115 114 114 113 113 112 112 112 111 111 111 110 109 109 108 108 108 107 106 106 106 106 105 105 105 105 105 105 105 105 105 105 106 107 107 108 108 109 110 110 111 111 111 110 110 110 109 109 109 109 108 108 107 107 107 107 107 107 107 108 108 107
112 112 112 113 113 113 113 113 113 113 113 113 113 113 113 113 113 113 113 112 112 112 111 111 110 110 109 109 109 108 108 107 106 106 105 105 104 104 103 103 103 102 102 101 101 101 100 100 100 100 100 100 100 100 100 100 101 101 102 102 103 104 104 105 105 105 105 105 105 104 104 104 104 104 104 103 103 103 103 103 103 103 103 103 104 104
109 110 110 110 110 110 110 110 110 110 110 110 110 110 110 109 109 109 109 108 108 107 106 106 105 105 105 104 104 104 103 102 102 101 100 100 99 99 98 98 97 97 97 97 96 96 96 96 95 95 95 95 95 95 95 96 96 96 97 97 98 99 99 99 100 100 100 99 99 99 99 99 99 99 99 98 98 98 98 98 98 98 98 99 99 100
107 107 107 107 107 107 107 106 106 106 106 106 106 106 105 105 105 104 104 104 103 103 102 101 101 100 100 100 100 99 99 98 97 97 96 96 95 94 94 93 93 93 93 92 92 92 92 91 91 91 91 90 90 90 91 91 92 92 92 93 93 93 94 94 95 95 94 94 93 93 93 93 94 94 94 93 93 93 93 93 93 94 94 94 95 95
103 103 103 103 103 103 103 102 102 102 102 102 101 101 101 100 100 100 100 99 99 98 97 97 96 96 96 96 96 95 95 94 94 93 93 92 91 91 90 90 89 89 89 89 89 88 88 88 87 87 87 86 86 87 87 88 88 88 88 89 89 89 90 90 90 90 89 89 88 88 88 88 88 88 88 88 88 88 88 88 89 89 90 90 90 91
100 99 99 99 99 99 98 98 98 98 97 97 97 97 96 96 96 96 95 95 95 94 94 93 93 93 93 93 93 92 92 91 90 90 89 89 88 87 87 86 86 86 85 85 85 85 85 84 84 84 83 83 83 83 84 84 85 85 85 85 85 85 85 86 86 85 85 84 84 83 83 83 83 83 84 83 83 84 84 84 85 85 85 86 86 87
96 95 95 95 95 94 94 94 94 94 93 93 93 93 93 92 92 92 92 91 91 91 90 90 90 90 90 89 89 89 88 88 87 86 86 85 84 84 83 83 82 82 82 81 81 81 81 81 81 81 80 80 80 80 81 81 81 81 81 81 81 81 81 81 82 81 81 80 79 79 79 79 79 79 79 79 80 80 80 80 81 81 82 82 83 83
92 92 92 91 91 91 91 91 90 90 90 90 89 89 89 88 88 88 88 87 87 87 87 86 86 86 86 86 85 85 85 84 84 83 82 81 80 80 79 79 79 78 78 78 78 77 77 77 77 77 77 77 77 77 77 77 78 78 78 78 77 77 77 78 78 77 77 76 76 75 75 75 75 75 76 76 76 76 77 77 78 78 78 79 79 80
89 88 88 88 88 87 87 87 87 86 86 86 86 85 85 85 85 84 84 83 83 83 83 83 82 82 82 82 82 81 81 81 80 79 78 77 77 76 76 75 75 74 74 74 74 74 73 74 74 74 74 74 74 74 74 74 74 74 74 74 74 74 74 74 74 74 73 72 72 71 71 71 71 72 72 73 73 73 74 74 75 75 75 76 76 76
85 85 85 84 84 84 84 83 83 83 83 82 82 81 81 81 81 80 80 80 79 79 79 79 79 79 78 78 78 78 77 77 76 75 74 74 73 72 72 72 71 71 70 70 70 70 70 70 70 70 70 70 70 70 70 70 70 70 70 70 70 70 70 70 70 70 69 69 68 68 67 67 68 68 69 69 70 71 71 71 72 72 72 73 73 73
82 82 81 81 81 80 80 80 79 79 79 79 78 78 78 77 77 77 77 76 76 76 76 76 75 75 75 75 74 74 73 73 72 72 71 70 69 69 68 68 67 67 67 67 66 66 66 66 66 66 66 66 66 66 66 66 66 66 66 67 67 67 67 67 67 66 66 65 65 64 64 64 64 65 66 66 67 68 68 69 69 69 70 70 70 71
78 78 78 78 77 77 77 76 76 76 76 76 75 75 75 74 74 74 73 73 73 73 73 72 72 72 72 71 71 71 70 70 69 68 68 67 66 66 65 64 64 63 63 63 63 63 63 63 63 63 63 62 62 62 62 62 62 63 63 63 64 64 64 64 63 63 62 62 61 61 61 61 61 62 63 64 65 65 66 66 66 66 67 67 67 68
75 75 75 75 74 74 74 74 74 73 73 73 73 72 72 71 71 71 70 70 70 70 70 69 69 69 69 69 68 68 67 67 66 65 65 64 63 63 62 61 61 60 60 60 60 59 59 60 60 59 59 59 58 58 58 59 59 60 60 60 60 61 61 61 60 59 59 58 58 58 58 58 58 59 60 61 62 63 63 63 64 64 64 64 64 65
Wind_Direction
279 279 279 280 280 280 281 281 281 282 282 282 283 283 284 284 285 286 286 287 287 287 288 288 288 289 289 289 289 289 289 289 289 289 289 289 288 288 288 288 288 287 287 286 286 286 285 285 285 284 284 284 283 283 282 281 281 280 279 279 278 277 277 277 276 276 275 274 273 272 271 271 271 272 273 274 275 276 277 278 279 280 281 282 283 284
279 279 279 280 280 280 280 281 281 282 282 283 283 283 284 284 285 286 286 287 287 287 288 288 288 288 289 289 289 289 289 289 289 288 288 288 288 288 287 287 287 287 286 286 286 285 285 285 284 284 283 283 282 282 281 280 280 279 278 277 277 276 275 275 274 274 273 273 272 272 272 272 273 274 275 276 277 278 279 280 280 281 282 283 284 284
279 279 279 280 280 280 280 281 281 281 282 282 283 283 284 284 285 285 286 286 287 287 287 287 288 288 288 288 288 288 288 288 288 288 288 287 287 287 287 287 286 286 286 286 285 285 285 284 284 284 283 282 282 281 280 279 279 278 277 276 275 274 274 273 273 272 272 273 273 273 274 275 276 277 277 278 279 279 280 280 281 282 283 283 284 285
278 279 279 279 280 280 280 281 281 281 281 282 282 283 283 283 284 285 285 286 286 286 287 287 287 287 287 287 288 287 287 287 287 287 287 287 287 286 286 286 286 286 286 285 285 285 284 284 284 283 282 282 281 280 279 278 278 277 276 275 274 274 273 273 272 273 273 274 275 276 277 277 278 278 279 279 279 279 280 280 281 282 282 283 284 284
278 278 279 279 280 280 280 281 281 281 281 282 282 282 283 283 284 284 285 285 285 286 286 286 287 287 287 287 287 287 287 287 287 287 287 286 286 286 286 286 286 285 285 285 285 284 284 284 283 283 282 281 280 280 279 278 277 277 276 276 275 275 274 274 274 274 275 276 277 278 278 278 278 278 278 278 278 279 279 280 280 281 282 282 283 284
278 278 278 279 279 280 280 281 281 281 281 282 282 282 283 283 283 284 284 285 285 286 286 286 286 286 286 286 286 286 286 286 286 286 286 286 286 286 285 285 285 285 285 285 284 284 284 283 283 282 281 281 280 279 279 278 277 277 277 277 276 276 275 275 275 275 276 276 276 276 276 276 276 276 276 276 277 277 278 279 280 280 281 282 282 283
278 278 278 279 279 279 280 280 281 281 281 282 282 282 283 283 283 284 284 285 285 285 286 286 286 286 286 286 286 286 286 286 286 286 286 286 285 285 285 285 285 284 284 284 284 283 283 282 282 281 281 280 279 279 278 278 278 278 278 277 277 276 275 275 274 274 274 274 274 274 274 274 275 275 275 276 276 277 278 278 279 280 280 281 282 283
278 278 278 278 279 279 280 280 280 281 281 282 282 282 283 283 283 284 284 285 285 285 285 286 286 286 286 286 286 286 286 286 286 286 286 285 285 285 285 285 284 284 284 284 283 283 282 282 281 280 280 279 279 278 278 278 278 278 277 277 276 275 274 273 273 273 272 272 272 273 273 274 274 275 275 276 276 277 278 278 279 279 280 281 281 282
277 278 278 278 279 279 279 280 280 281 281 281 282 282 283 283 283 284 284 285 285 285 285 285 285 285 286 286 286 286 286 286 286 286 285 285 285 285 285 284 284 284 283 283 283 282 281 281 280 279 279 278 278 278 278 277 278 278 277 277 276 275 274 273 273 273 272 272 272 273 273 274 275 275 276 276 277 277 278 278 279 279 280 280 281 282
277 277 278 278 279 279 279 280 280 281 281 281 282 282 283 283 283 284 284 284 285 285 285 285 285 285 285 285 285 286 285 285 285 285 285 285 284 284 284 283 283 283 282 282 281 281 280 279 279 278 278 278 277 277 277 277 278 278 277 277 276 276 275 275 275 274 274 274 274 274 275 275 276 276 277 277 277 277 278 278 278 279 279 280 280 281
277 277 278 278 279 279 279 280 280 281 281 282 282 282 283 283 283 284 284 284 284 284 284 284 284 284 284 284 285 285 284 284 284 284 283 283 283 282 282 281 281 281 280 280 279 279 278 278 278 278 278 278 278 278 278 278 278 278 278 278 278 277 277 277 277 276 276 276 275 275 275 276 276 276 276 277 277 277 277 278 278 278 279 280 280 281
277 277 278 278 279 279 279 280 280 281 281 282 282 283 283 283 283 283 283 283 284 284 284 284 284 284 284 284 284 284 284 283 283 283 282 282 282 281 281 280 280 279 279 279 279 278 278 278 278 278 278 278 278 279 278 278 278 278 278 278 278 278 278 277 277 277 276 276 276 275 275 275 275 275 276 276 276 277 277 277 278 278 279 279 280 280
277 278 278 278 279 279 280 280 281 281 282 282 282 283 283 283 283 283 283 283 283 283 283 284 284 284 284 284 283 283 283 283 283 283 283 282 282 282 282 281 281 281 280 280 280 280 280 279 279 279 279 279 279 279 279 278 278 278 278 277 277 277 277 276 276 276 275 275 275 274 274 274 274 274 275 275 276 276 277 277 277 278 278 279 279 280
277 278 278 278 279 279 280 280 281 281 281 282 282 282 282 283 283 283 283 283 283 283 283 283 283 284 284 283 283 283 283 283 283 283 283 283 283 283 283 283 283 282 282 282 281 281 281 280 280 280 279 279 279 278 278 278 277 277 276 276 276 275 275 275 275 274 274 274 274 274 273 273 274 274 274 275 275 276 276 277 277 277 278 278 279 279
277 278 278 279 279 280 280 280 281 281 281 281 281 282 282 282 282 282 282 282 283 283 283 283 283 283 283 283 283 283 283 282 282 282 282 282 283 283 283 282 282 282 282 281 281 280 280 280 279 279 278 278 278 277 277 277 276 276 275 275 275 274 274 274 274 274 274 274 273 273 273 273 273 273 274 274 275 275 276 276 277 277 277 278 278 278
278 278 279 279 279 280 280 280 280 280 281 281 281 281 281 281 282 282 282 282 282 282 283 282 282 282 282 282 282 282 282 282 282 282 282 282 282 282 281 281 281 280 280 280 279 279 279 278 278 278 277 277 277 277 276 276 276 275 275 275 274 274 274 274 274 274 274 274 274 274 273 273 273 273 274 274 274 275 275 276 276 276 277 277 277 277
278 279 279 279 279 280 280 280 280 280 280 281 281 281 281 281 282 282 282 282 282 282 282 282 282 282 282 282 282 281 281 281 281 281 281 281 281 280 280 280 279 279 279 279 278 278 278 277 277 277 277 276 276 276 276 275 275 275 275 275 274 274 274 274 274 274 274 274 274 274 274 274 274 274 274 274 274 274 275 275 275 276 276 276 276 277
279 279 279 279 279 280 280 280 280 280 281 281 281 281 281 281 282 282 282 282 282 282 281 281 281 281 281 281 281 281 281 281 280 280 280 280 280 280 280 279 279 278 278 278 278 278 277 277 277 276 276 276 276 276 275 275 275 275 275 275 274 274 274 274 274 274 274 274 274 274 274 274 274 274 274 274 274 274 274 274 275 275 275 275 276 276
279 279 279 279 280 280 280 280 281 281 281 281 281 281 282 282 282 282 281 281 281 281 281 281 281 281 281 281 281 281 281 280 280 280 280 279 279 279 279 279 278 278 278 277 277 277 277 277 277 276 276 276 275 275 275 275 275 274 274 274 274 274 274 274 274 274 274 274 274 274 274 274 274 274 274 273 273 273 273 274 274 274 274 274 275 275
279 280 280 280 280 281 281 281 281 281 281 281 281 281 281 281 281 281 281 281 281 281 281 281 281 281 281 280 280 280 280 280 280 279 279 279 279 279 278 278 277 277 277 277 277 277 277 276 276 276 276 276 275 275 275 274 274 274 274 274 274 274 274 274 274 274 274 274 274 274 274 274 274 274 273 273 273 273 273 273 273 273 273 274 274 274
280 280 280 280 281 281 281 281 281 281 281 281 281 281 281 281 281 281 281 281 281 281 281 281 280 280 280 280 280 280 280 279 279 279 279 278 278 278 278 277 277 277 277 276 276 276 276 276 276 276 275 275 275 275 274 274 274 274 274 273 273 273 273 273 273 273 273 273 273 273 273 273 273 273 273 273 273 273 273 273 273 273 273 273 273 273
280 280 280 280 280 280 280 281 281 281 281 281 281 280 280 280 280 280 281 281 281 280 280 280 280 280 280 280 279 279 279 279 278 278 278 278 278 278 277 277 277 277 276 276 276 276 276 275 275 275 275 275 275 275 274 274 274 274 273 273 273 273 273 272 272 272 272 272 273 273 273 273 273 273 273 273 273 273 273 272 272 272 272 272 272 272
280 280 280 280 280 280 280 280 280 280 280 280 280 280 280 280 280 280 280 280 280 280 280 280 280 280 280 279 279 279 278 278 278 278 278 277 277 277 277 277 277 276 276 276 276 276 275 275 275 275 275 275 274 274 274 274 274 274 273 273 273 273 272 272 272 272 272 272 272 272 272 272 272 272 272 272 272 272 272 272 272 272 272 271 271 271
280 280 280 280 280 280 280 280 280 280 280 280 280 280 280 280 280 280 280 280 280 280 280 280 280 279 279 279 278 278 278 278 278 277 277 277 277 277 277 276 276 276 276 276 275 275 275 275 275 275 275 274 274 274 274 274 274 273 273 273 273 272 272 272 272 272 271 271 271 271 272 272 272 272 272 272 272 272 272 272 272 271 271 271 271 271
281 281 281 280 280 280 280 280 280 280 280 280 280 280 280 280 280 280 280 280 280 279 279 279 279 279 279 279 278 278 278 278 278 277 277 277 277 277 276 276 276 275 275 275 275 275 275 274 274 274 274 274 274 274 274 274 273 273 273 273 272 272 272 272 271 271 271 271 271 271 271 271 271 271 271 271 271 271 271 271 271 271 271 271 270 270
281 281 281 281 281 281 281 281 281 280 280 280 280 280 280 280 280 280 279 279 279 279 279 279 278 278 278 278 278 278 278 278 278 277 277 277 277 277 276 276 275 275 275 275 274 274 274 274 274 274 274 274 274 274 274 273 273 273 273 272 272 272 272 272 271 271 271 271 271 270 270 270 270 270 270 271 271 271 271 271 271 270 270 270 270 270
282 281 281 281 281 281 281 281 280 280 280 280 280 279 279 279 279 279 279 279 279 279 279 278 278 278 278 278 278 278 278 278 278 277 277 277 277 277 276 276 275 275 274 274 274 274 274 274 274 274 274 274 273 273 273 273 273 273 272 272 272 272 272 271 271 271 271 271 270 270 270 270 270 270 270 270 270 270 270 270 270 270 270 270 270 270
282 282 281 281 281 281 281 280 280 280 280 279 279 279 279 279 279 279 278 279 279 279 279 278 278 278 278 278 278 277 277 277 277 277 277 277 277 276 276 275 275 275 274 274 274 274 273 273 273 273 273 273 273 273 273 273 273 272 272 272 272 272 272 271 271 271 271 270 270 270 269 269 269 269 269 269 269 269 269 269 269 269 269 269 269 269
282 282 282 281 281 281 281 280 280 280 280 280 279 279 279 279 279 279 279 279 279 279 279 278 278 278 278 278 277 277 277 277 277 276 276 276 276 276 275 275 275 275 274 274 274 274 273 273 273 273 273 273 273 273 272 272 272 272 272 272 272 271 271 271 271 270 270 270 269 269 269 268 268 268 268 268 268 268 268 268 268 268 269 269 269 268
282 282 282 281 281 281 281 281 280 280 280 280 280 279 279 279 279 279 279 279 279 278 278 278 278 278 277 277 277 277 277 276 276 276 276 276 276 275 275 275 275 274 274 274 274 274 274 273 273 273 272 272 272 272 272 272 272 272 271 271 271 271 271 270 270 270 270 269 269 269 268 268 267 267 267 267 267 267 267 267 267 267 267 268 268 267
282 282 281 281 281 281 281 281 281 280 280 280 280 280 279 279 279 279 279 278 278 278 278 278 278 277 277 277 277 277 276 276 276 276 276 276 275 275 275 275 275 274 274 274 274 274 274 273 273 273 272 272 272 272 272 272 271 271 271 271 271 270 270 270 270 269 269 269 268 268 268 267 267 266 266 266 266 266 266 266 266 266 266 266 266 266
281 281 281 281 281 281 281 281 281 281 281 280 280 280 280 279 279 279 279 279 278 278 278 278 278 277 277 277 277 277 276 276 276 276 275 275 275 275 275 275 275 274 274 274 274 273 273 273 273 273 272 272 272 272 272 271 271 271 271 271 270 270 270 269 269 269 269 268 268 268 267 267 266 266 266 265 265 265 265 265 265 265 265 265 265 265
281 281 281 281 281 281 281 281 281 281 281 281 281 280 280 280 280 280 279 279 279 279 279 278 278 278 278 278 277 277 277 277 276 276 276 275 275 275 275 275 275 274 274 274 273 273 273 273 273 273 272 272 272 272 272 271 271 271 271 270 270 270 269 269 269 268 268 268 267 267 267 266 266 266 265 265 265 264 264 264 264 263 263 263 263 264
282 281 281 281 281 281 281 281 281 281 281 281 281 281 281 281 281 280 280 280 280 280 280 279 279 279 279 278 278 278 277 277 277 276 276 276 276 275 275 275 275 275 274 274 274 273 273 272 272 272 272 272 271 271 271 271 271 270 270 270 270 269 269 269 268 268 268 267 267 267 266 266 266 265 265 264 264 264 263 263 263 262 262 262 262 262
282 282 282 282 282 282 282 281 281 281 281 281 281 281 281 281 281 281 281 281 281 280 280 280 280 279 279 279 279 279 278 278 277 277 277 276 276 276 276 275 275 275 275 274 274 274 273 273 272 272 272 271 271 271 270 270 270 270 269 269 269 268 268 268 268 267 267 266 266 266 265 265 265 264 264 264 263 263 263 262 262 262 261 261 261 261
283 283 283 283 283 282 282 282 282 282 282 282 282 281 281 281 281 281 281 281 281 280 280 280 280 280 279 279 279 279 278 278 278 277 277 277 276 276 276 276 276 275 275 275 274 274 274 273 273 272 272 271 271 270 269 269 269 268 268 268 268 267 267 267 266 266 266 265 265 265 264 264 264 263 263 263 262 262 262 261 261 261 260 260 260 260
284 284 283 283 283 283 283 283 282 282 282 282 282 281 281 281 281 281 281 281 280 280 280 280 280 280 280 279 279 279 278 278 278 278 277 277 277 276 276 276 276 276 275 275 275 274 274 273 273 272 272 271 270 269 269 268 268 267 267 267 266 266 266 266 265 265 265 264 264 264 263 263 263 262 262 261 261 261 260 260 260 259 259 259 258 258
284 284 284 283 283 283 283 283 282 282 282 282 281 281 281 281 281 281 281 281 280 280 280 280 280 280 280 280 279 279 279 278 278 278 278 277 277 277 276 276 276 276 275 275 274 274 274 273 273 272 271 270 270 269 268 268 267 267 266 266 266 265 265 264 264 264 263 263 263 263 262 262 261 261 261 260 260 259 259 258 258 258 257 257 257 257
284 284 284 283 283 283 283 283 282 282 282 282 282 281 281 281 281 281 281 281 281 280 280 280 280 280 280 280 279 279 279 278 278 278 278 277 277 277 276 276 276 275 275 275 274 274 273 273 272 271 271 270 269 269 268 267 267 266 266 266 265 265 264 264 263 263 263 262 262 262 261 261 261 260 260 259 259 258 258 257 257 256 256 256 256 255
284 284 284 284 283 283 283 283 283 282 282 282 282 282 282 282 281 281 281 281 281 281 281 281 281 280 280 280 280 279 279 279 278 278 278 277 277 277 276 276 276 275 275 274 274 273 273 272 272 271 271 270 269 269 268 268 267 266 266 265 265 264 264 263 263 262 262 262 261 261 261 260 260 260 259 259 258 258 257 257 256 256 255 255 255 254
285 285 284 284 284 284 283 283 283 283 283 283 282 282 282 282 282 282 282 282 281 281 281 281 281 281 281 280 280 280 279 279 279 278 278 278 277 277 276 276 276 275 275 274 274 273 273 272 272 271 271 270 269 269 268 268 267 266 266 265 264 264 263 263 263 262 262 261 261 260 260 260 259 259 259 258 258 257 257 256 256 255 255 254 254 253
285 285 285 285 284 284 284 284 284 283 283 283 283 283 283 283 283 282 282 282 282 282 282 282 282 281 281 281 280 280 280 279 279 279 278 278 277 277 277 276 276 275 275 275 274 274 273 272 272 271 271 270 269 269 268 268 267 266 265 265 264 264 263 263 262 262 261 261 261 260 260 259 259 259 258 258 257 257 256 256 255 255 254 253 253 252
286 285 285 285 285 285 284 284 284 284 284 284 284 283 283 283 283 283 283 283 283 283 282 282 282 282 281 281 281 280 280 279 279 279 278 278 278 277 277 277 276 276 275 275 274 274 273 273 272 271 271 270 269 269 268 267 267 266 265 265 264 264 263 263 262 262 261 261 261 260 259 259 259 258 258 257 257 256 256 255 254 254 253 253 252 251
286 286 286 286 286 285 285 285 285 285 284 284 284 284 284 284 284 283 283 283 283 283 283 283 282 282 281 281 281 280 280 280 279 279 278 278 278 277 277 277 276 276 275 275 274 274 273 273 272 271 271 270 269 269 268 267 267 266 265 265 264 263 263 263 262 262 261 261 260 260 259 258 258 258 257 257 256 255 255 254 253 253 252 251 251 250
287 287 287 286 286 286 286 286 285 285 285 285 285 285 284 284 284 284 284 283 283 283 283 283 282 282 281 281 281 280 280 280 279 279 278 278 278 277 277 277 276 276 275 274 274 274 273 273 272 271 270 270 269 268 267 267 266 266 265 264 264 263 263 262 262 262 261 260 260 259 258 258 257 257 256 256 255 254 253 253 252 251 250 250 249 248
288 288 287 287 287 287 286 286 286 286 286 285 285 285 285 284 284 284 284 283 283 283 283 282 282 281 281 281 281 280 280 279 279 279 278 278 278 277 277 276 276 275 275 274 274 273 273 272 272 271 270 269 269 268 267 266 266 265 265 264 264 263 263 262 262 261 260 260 259 258 258 257 256 256 255 254 254 253 252 251 250 250 249 248 248 247
288 288 288 288 288 287 287 287 287 286 286 286 285 285 285 285 284 284 284 284 283 283 283 282 282 281 281 281 281 280 280 280 279 279 279 278 278 277 277 276 276 275 275 274 274 273 272 272 271 270 270 269 268 267 267 266 266 265 265 264 264 263 262 262 261 261 260 259 259 258 257 256 255 254 254 253 252 251 251 250 249 248 248 247 246 246
289 289 289 288 288 288 288 287 287 287 287 286 286 286 285 285 285 285 284 284 284 283 283 283 282 282 281 281 281 280 280 280 280 279 279 279 278 278 277 277 276 275 275 274 273 273 272 271 271 270 269 269 268 267 267 266 266 265 265 264 264 263 262 261 261 260 259 259 258 257 256 255 254 253 253 252 251 250 249 249 248 247 246 246 245 244
290 290 289 289 289 289 288 288 288 288 287 287 287 286 286 286 286 285 285 285 284 284 283 283 283 282 282 282 282 281 281 281 280 280 280 279 279 278 277 277 276 276 275 274 273 273 272 271 270 270 269 268 268 267 267 266 266 265 265 264 263 262 262 261 260 259 258 258 257 256 255 254 253 252 251 250 250 249 248 247 247 246 245 244 244 243
291 291 290 290 290 289 289 289 289 288 288 288 288 287 287 287 287 286 286 285 285 285 284 284 284 283 283 283 283 282 282 282 281 281 280 280 279 279 278 277 277 276 275 275 274 273 272 271 270 270 269 268 268 267 267 266 265 265 264 263 262 261 261 260 259 258 257 257 256 255 254 253 252 251 250 249 248 248 247 246 245 244 244 243 242 242
292 292 291 291 291 291 290 290 290 289 289 289 289 288 288 288 287 287 287 286 286 285 285 285 284 284 284 284 283 283 283 283 282 282 281 281 280 280 279 278 278 277 276 275 274 273 272 272 271 270 269 268 267 267 266 265 264 264 263 262 261 260 260 259 258 258 257 255 254 253 252 251 250 249 248 248 247 246 246 245 244 243 242 242 241 241
Height
10544 10542 10542 10542 10542 10540 10539 10539 10540 10540 10537 10538 10539 10537 10534 10531 10527 10524 10522 10523 10523 10522 10520 10519 10518 10517 10516 10515 10514 10513 10512 10512 10511 10510 10509 10508 10507 10506 10505 10504 10503 10503 10502 10502 10502 10501 10500 10500 10500 10500 10500 10500 10500 10500 10500 10500 10500 10500 10500 10500 10500 10500 10499 10499 10499 10499 10500 10501 10502 10503 10504 10505 10505 10505 10505 10505 10506 10505 10505 10506 10507 10507 10507 10509 10509 10509
10537 10535 10535 10534 10533 10532 10530 10529 10531 10532 10530 10528 10527 10526 10524 10521 10519 10515 10514 10514 10514 10514 10513 10512 10510 10509 10508 10507 10506 10505 10505 10504 10504 10503 10502 10501 10500 10499 10498 10497 10496 10495 10495 10495 10494 10494 10494 10494 10494 10494 10493 10493 10493 10493 10493 10493 10493 10494 10494 10494 10494 10494 10494 10494 10494 10494 10494 10495 10496 10497 10498 10499 10499 10499 10499 10500 10500 10500 10499 10500 10500 10500 10501 10502 10503 10504
10529 10528 10527 10525 10525 10524 10522 10521 10522 10523 10522 10520 10517 10516 10514 10513 10510 10509 10507 10506 10506 10505 10505 10504 10503 10502 10501 10500 10499 10498 10497 10497 10496 10495 10495 10494 10493 10492 10490 10489 10489 10488 10487 10487 10487 10487 10486 10486 10486 10486 10486 10486 10486 10486 10486 10486 10486 10487 10487 10488 10489 10489 10489 10489 10488 10488 10488 10489 10489 10490 10491 10492 10492 10492 10493 10493 10494 10494 10494 10494 10494 10495 10495 10495 10497 10497
10522 10520 10519 10517 10517 10516 10514 10514 10514 10515 10514 10512 10510 10509 10507 10505 10504 10502 10500 10499 10499 10497 10496 10496 10495 10495 10494 10493 10492 10491 10490 10489 10488 10487 10487 10486 10485 10484 10483 10482 10481 10480 10480 10480 10479 10479 10479 10479 10479 10479 10479 10479 10479 10479 10479 10479 10479 10480 10480 10481 10482 10482 10483 10483 10482 10482 10482 10482 10482 10483 10484 10484 10485 10486 10487 10487 10487 10488 10488 10489 10489 10489 10489 10489 10490 10491
10514 10513 10511 10510 10510 10509 10505 10505 10505 10505 10504 10504 10502 10500 10499 10498 10496 10494 10493 10492 10491 10490 10488 10488 10487 10487 10487 10485 10484 10484 10482 10482 10480 10480 10479 10479 10477 10477 10475 10475 10474 10474 10473 10472 10472 10472 10472 10471 10471 10471 10471 10471 10471 10471 10471 10472 10472 10472 10473 10474 10475 10475 10476 10476 10476 10475 10475 10475 10475 10476 10477 10478 10479 10479 10480 10481 10481 10482 10482 10482 10483 10483 10483 10484 10484 10485
10505 10505 10504 10503 10502 10499 10497 10496 10495 10494 10494 10494 10493 10491 10490 10489 10488 10486 10485 10484 10482 10482 10480 10480 10479 10479 10478 10477 10477 10475 10475 10474 10473 10472 10472 10470 10470 10469 10468 10467 10467 10466 10465 10465 10465 10465 10464 10464 10464 10464 10463 10463 10463 10463 10464 10464 10464 10465 10465 10466 10467 10468 10469 10469 10469 10469 10469 10469 10469 10470 10470 10471 10472 10473 10474 10474 10475 10475 10476 10477 10477 10477 10477 10478 10479 10479
10496 10495 10495 10495 10494 10491 10490 10488 10487 10485 10485 10484 10484 10482 10481 10480 10479 10478 10476 10475 10474 10473 10472 10471 10470 10470 10469 10468 10467 10467 10466 10466 10465 10464 10464 10463 10462 10461 10460 10460 10459 10459 10459 10458 10458 10457 10457 10457 10457 10456 10456 10455 10455 10456 10456 10456 10457 10457 10458 10459 10460 10460 10461 10462 10463 10463 10464 10464 10464 10464 10464 10464 10465 10466 10467 10468 10469 10469 10470 10470 10470 10471 10472 10472 10473 10473
10488 10487 10485 10485 10485 10483 10481 10479 10478 10477 10477 10476 10474 10473 10472 10471 10470 10469 10468 10467 10466 10465 10464 10463 10461 10460 10459 10459 10459 10458 10457 10457 10456 10455 10455 10454 10454 10453 10452 10452 10452 10451 10451 10450 10450 10450 10450 10450 10449 10449 10449 10449 10449 10449 10449 10449 10450 10450 10450 10452 10452 10453 10454 10455 10456 10457 10457 10457 10457 10457 10457 10457 10458 10459 10460 10460 10462 10462 10463 10464 10464 10465 10465 10466 10467 10467
10480 10479 10477 10475 10475 10474 10473 10470 10469 10468 10469 10468 10466 10464 10464 10462 10461 10460 10459 10459 10458 10457 10455 10454 10452 10450 10450 10449 10449 10449 10448 10447 10447 10446 10446 10445 10445 10444 10444 10444 10444 10444 10443 10443 10443 10443 10442 10442 10442 10442 10442 10442 10442 10442 10442 10442 10443 10443 10444 10444 10445 10445 10447 10448 10449 10450 10450 10450 10450 10450 10450 10451 10451 10452 10452 10454 10454 10455 10456 10457 10458 10459 10459 10460 10460 10461
10472 10470 10469 10467 10466 10465 10465 10462 10460 10458 10459 10459 10457 10455 10455 10454 10453 10452 10450 10449 10449 10448 10447 10446 10445 10443 10442 10440 10440 10439 10439 10438 10437 10437 10437 10437 10437 10436 10436 10436 10436 10436 10436 10436 10436 10435 10435 10435 10435 10435 10435 10435 10435 10435 10435 10435 10435 10435 10435 10436 10437 10438 10439 10440 10441 10442 10443 10444 10444 10444 10444 10444 10444 10444 10445 10446 10447 10448 10449 10450 10451 10452 10452 10453 10454 10455
10463 10462 10460 10459 10458 10456 10455 10454 10452 10450 10449 10449 10448 10446 10445 10445 10445 10444 10442 10440 10439 10439 10439 10437 10437 10435 10435 10433 10432 10431 10431 10430 10430 10429 10429 10430 10430 10430 10430 10430 10430 10430 10430 10430 10430 10429 10429 10429 10429 10429 10429 10429 10428 10428 10428 10428 10428 10428 10428 10428 10429 10429 10430 10432 10433 10434 10435 10436 10437 10437 10437 10437 10437 10437 10438 10439 10439 10440 10442 10443 10444 10445 10445 10447 10447 10448
10454 10453 10452 10451 10449 10448 10446 10445 10443 10442 10441 10440 10439 10437 10435 10435 10435 10435 10434 10432 10430 10429 10429 10428 10427 10427 10427 10425 10424 10423 10422 10422 10422 10422 10422 10422 10422 10422 10423 10423 10424 10424 10424 10423 10423 10422 10422 10421 10420 10420 10420 10420 10420 10420 10420 10420 10420 10420 10420 10420 10421 10422 10422 10424 10425 10426 10427 10428 10429 10430 10430 10430 10431 10431 10431 10432 10432 10433 10434 10435 10437 10438 10439 10440 10440 10441
10445 10445 10444 10442 10441 10439 10438 10437 10435 10434 10432 10431 10430 10428 10426 10425 10425 10425 10424 10423 10421 10420 10420 10419 10418 10417 10417 10416 10415 10415 10414 10413 10412 10412 10412 10412 10412 10412 10413 10414 10414 10414 10414 10414 10413 10413 10412 10412 10412 10411 10411 10411 10411 10411 10412 10412 10412 10413 10414 10414 10414 10415 10415 10416 10417 10418 10419 10420 10422 10422 10424 10424 10424 10425 10425 10425 10425 10426 10427 10428 10429 10430 10432 10432 10434 10434
10437 10436 10435 10434 10432 10431 10430 10429 10427 10425 10423 10422 10420 10419 10418 10417 10416 10415 10414 10413 10412 10411 10411 10410 10409 10407 10407 10407 10406 10405 10405 10404 10404 10403 10403 10402 10402 10402 10403 10402 10402 10402 10404 10404 10402 10402 10402 10402 10402 10402 10402 10402 10403 10403 10404 10404 10405 10405 10406 10407 10407 10408 10408 10409 10410 10410 10412 10413 10414 10415 10416 10417 10417 10418 10419 10419 10419 10419 10420 10420 10422 10423 10424 10425 10426 10427
10429 10428 10427 10425 10424 10422 10421 10420 10419 10417 10414 10413 10412 10411 10409 10408 10407 10406 10405 10404 10403 10402 10403 10402 10400 10399 10398 10397 10397 10396 10396 10395 10395 10395 10394 10394 10393 10394 10394 10394 10393 10393 10394 10394 10394 10393 10393 10394 10394 10394 10394 10395 10395 10395 10396 10397 10397 10398 10399 10399 10400 10400 10400 10401 10402 10402 10404 10404 10405 10407 10408 10409 10410 10411 10412 10412 10412 10412 10412 10413 10414 10415 10416 10417 10419 10420
10420 10420 10419 10417 10415 10414 10412 10411 10410 10408 10405 10404 10403 10402 10400 10399 10398 10397 10397 10395 10394 10394 10394 10393 10392 10391 10389 10388 10388 10388 10388 10387 10387 10387 10387 10387 10385 10385 10386 10386 10385 10384 10385 10386 10385 10384 10385 10385 10385 10385 10386 10387 10387 10387 10388 10389 10389 10390 10390 10390 10391 10392 10392 10393 10394 10394 10395 10395 10397 10398 10399 10400 10402 10403 10404 10404 10405 10405 10405 10405 10406 10407 10408 10409 10410 10412
10412 10411 10410 10408 10406 10405 10403 10402 10400 10399 10397 10395 10394 10392 10392 10390 10389 10388 10387 10386 10385 10385 10385 10384 10384 10383 10382 10380 10379 10379 10379 10380 10379 10378 10379 10379 10377 10376 10377 10378 10377 10375 10376 10377 10376 10375 10375 10376 10377 10377 10378 10379 10379 10379 10380 10380 10380 10381 10382 10382 10382 10383 10384 10384 10384 10385 10385 10387 10387 10389 10390 10391 10392 10394 10395 10396 10397 10397 10398 10399 10399 10399 10400 10401 10402 10404
10404 10402 10401 10399 10397 10395 10394 10392 10390 10389 10387 10386 10384 10383 10382 10381 10380 10379 10378 10377 10376 10376 10375 10375 10375 10375 10374 10372 10370 10369 10370 10372 10370 10369 10369 10370 10369 10367 10369 10370 10369 10367 10367 10367 10367 10366 10366 10367 10367 10368 10369 10370 10370 10370 10371 10371 10372 10372 10372 10373 10374 10374 10374 10375 10375 10375 10377 10377 10378 10379 10380 10381 10383 10384 10386 10387 10389 10389 10390 10391 10391 10392 10392 10394 10394 10396
10394 10393 10392 10390 10388 10386 10384 10383 10381 10379 10377 10376 10375 10374 10373 10371 10369 10369 10369 10367 10366 10366 10366 10366 10365 10365 10365 10364 10362 10360 10361 10363 10362 10360 10360 10360 10360 10359 10360 10360 10360 10359 10358 10358 10358 10357 10357 10357 10357 10358 10359 10360 10360 10360 10362 10362 10363 10364 10364 10364 10365 10365 10365 10365 10366 10367 10367 10368 10369 10370 10370 10372 10373 10375 10376 10378 10379 10381 10382 10383 10384 10384 10385 10386 10387 10388
10385 10384 10382 10380 10379 10377 10375 10373 10371 10370 10369 10367 10365 10365 10364 10361 10360 10359 10358 10357 10357 10357 10357 10357 10357 10355 10355 10355 10354 10352 10352 10353 10352 10350 10349 10350 10351 10351 10350 10352 10351 10349 10348 10349 10349 10349 10348 10347 10347 10348 10349 10350 10350 10350 10352 10352 10354 10354 10355 10355 10356 10356 10357 10357 10357 10358 10358 10359 10360 10360 10361 10362 10364 10365 10367 10368 10370 10372 10374 10375 10375 10377 10377 10379 10379 10380
10377 10375 10372 10372 10371 10369 10366 10363 10362 10361 10359 10358 10357 10355 10354 10352 10351 10350 10348 10347 10347 10347 10347 10347 10347 10346 10346 10347 10345 10343 10342 10344 10343 10341 10339 10340 10342 10342 10340 10342 10342 10340 10339 10339 10340 10340 10339 10339 10338 10339 10339 10340 10340 10340 10341 10342 10344 10345 10345 10346 10347 10347 10348 10349 10349 10349 10349 10350 10350 10352 10352 10354 10354 10355 10357 10358 10360 10362 10364 10365 10367 10369 10370 10370 10372 10373
10370 10367 10364 10364 10362 10360 10357 10355 10353 10352 10350 10349 10348 10346 10344 10343 10342 10340 10338 10337 10338 10338 10337 10337 10337 10337 10337 10338 10336 10334 10332 10334 10333 10331 10330 10332 10332 10331 10330 10332 10332 10331 10329 10330 10330 10330 10330 10329 10329 10329 10330 10330 10330 10330 10331 10332 10334 10335 10335 10337 10337 10338 10339 10339 10340 10340 10341 10342 10342 10343 10344 10344 10345 10346 10347 10349 10350 10352 10354 10356 10358 10360 10361 10362 10364 10365
10362 10359 10357 10355 10354 10352 10349 10347 10344 10342 10341 10340 10339 10337 10334 10334 10333 10331 10329 10328 10328 10328 10327 10327 10327 10328 10328 10327 10325 10324 10323 10323 10322 10322 10322 10323 10322 10321 10321 10324 10324 10322 10319 10320 10321 10322 10320 10320 10319 10320 10320 10320 10320 10320 10321 10322 10323 10324 10325 10327 10327 10328 10329 10330 10330 10331 10332 10333 10334 10334 10335 10335 10337 10337 10338 10339 10340 10342 10344 10345 10348 10350 10352 10354 10355 10357
10353 10350 10349 10346 10344 10342 10340 10338 10335 10334 10332 10330 10329 10327 10325 10324 10323 10321 10320 10319 10319 10318 10317 10317 10318 10318 10317 10316 10316 10315 10314 10312 10312 10313 10314 10312 10312 10312 10313 10315 10314 10312 10309 10309 10311 10312 10312 10310 10309 10310 10311 10311 10310 10310 10311 10312 10313 10314 10315 10316 10317 10317 10319 10319 10320 10322 10322 10324 10325 10325 10326 10327 10327 10328 10329 10329 10330 10332 10333 10335 10337 10339 10342 10344 10346 10348
10344 10341 10339 10337 10335 10334 10331 10329 10327 10325 10323 10321 10319 10317 10315 10314 10312 10311 10310 10309 10309 10309 10309 10309 10309 10307 10306 10305 10306 10305 10302 10300 10302 10303 10303 10301 10300 10301 10304 10305 10305 10303 10300 10299 10300 10303 10303 10300 10299 10299 10301 10301 10300 10300 10300 10301 10302 10303 10304 10305 10305 10306 10307 10308 10310 10311 10312 10314 10315 10316 10317 10318 10319 10319 10319 10320 10320 10322 10323 10324 10326 10329 10331 10334 10336 10338
10334 10332 10329 10327 10325 10324 10322 10320 10318 10316 10315 10313 10310 10308 10305 10304 10302 10301 10300 10299 10299 10299 10300 10300 10298 10297 10296 10297 10297 10295 10292 10290 10290 10292 10292 10290 10290 10290 10291 10292 10293 10293 10290 10288 10289 10292 10294 10292 10289 10289 10290 10291 10290 10289 10289 10290 10291 10291 10292 10293 10294 10295 10295 10297 10298 10300 10301 10303 10305 10306 10307 10309 10309 10310 10310 10310 10311 10312 10312 10314 10315 10317 10320 10322 10325 10328
10323 10321 10319 10317 10315 10314 10312 10310 10308 10306 10304 10302 10301 10299 10297 10295 10294 10293 10290 10287 10287 10289 10290 10290 10287 10286 10287 10288 10287 10285 10282 10281 10280 10280 10279 10279 10280 10279 10277 10277 10279 10281 10280 10277 10277 10280 10284 10283 10280 10279 10280 10280 10279 10278 10278 10279 10279 10279 10280 10281 10282 10282 10284 10285 10286 10287 10289 10291 10293 10295 10296 10298 10299 10299 10300 10301 10301 10302 10302 10303 10304 10306 10309 10311 10314 10317
10313 10311 10309 10307 10305 10304 10302 10300 10298 10296 10294 10292 10290 10288 10286 10286 10285 10283 10279 10276 10277 10279 10280 10279 10277 10276 10277 10277 10276 10274 10274 10272 10270 10267 10265 10268 10269 10267 10263 10262 10265 10269 10268 10265 10264 10267 10272 10272 10271 10269 10269 10269 10269 10267 10267 10267 10267 10267 10268 10269 10269 10270 10271 10272 10274 10275 10276 10278 10280 10282 10284 10286 10287 10289 10290 10290 10291 10292 10292 10293 10294 10295 10297 10300 10304 10307
10303 10301 10299 10297 10295 10293 10291 10289 10287 10285 10284 10282 10279 10277 10275 10275 10275 10273 10269 10265 10266 10268 10269 10266 10264 10265 10267 10267 10265 10264 10264 10262 10259 10255 10254 10256 10257 10253 10248 10248 10252 10256 10255 10252 10252 10255 10258 10259 10259 10259 10259 10258 10257 10255 10255 10255 10255 10255 10255 10256 10257 10258 10259 10260 10261 10262 10263 10265 10267 10269 10271 10273 10275 10277 10279 10280 10281 10282 10282 10283 10284 10285 10287 10289 10292 10295
10293 10290 10288 10285 10283 10281 10280 10278 10275 10274 10272 10270 10269 10266 10264 10263 10262 10261 10259 10256 10255 10256 10256 10254 10252 10252 10254 10255 10254 10253 10251 10249 10245 10244 10244 10245 10243 10237 10233 10235 10240 10244 10242 10239 10240 10243 10243 10242 10244 10247 10249 10247 10245 10243 10243 10243 10242 10242 10243 10244 10244 10245 10246 10247 10247 10249 10249 10250 10252 10254 10257 10259 10262 10264 10266 10268 10270 10271 10272 10274 10274 10275 10277 10279 10281 10284
10284 10281 10278 10275 10272 10270 10268 10266 10264 10262 10260 10259 10257 10255 10252 10250 10249 10248 10247 10245 10244 10244 10244 10242 10240 10240 10240 10242 10242 10241 10238 10234 10232 10232 10233 10234 10230 10223 10218 10222 10227 10230 10227 10226 10228 10232 10230 10227 10228 10233 10238 10237 10233 10230 10229 10230 10231 10230 10230 10230 10231 10232 10233 10233 10234 10235 10235 10237 10238 10240 10242 10245 10248 10250 10253 10255 10258 10260 10262 10263 10264 10265 10267 10269 10270 10273
10275 10272 10269 10265 10262 10260 10257 10255 10252 10250 10248 10246 10244 10242 10240 10238 10236 10235 10233 10232 10231 10230 10230 10229 10228 10227 10227 10227 10228 10228 10225 10221 10218 10218 10219 10220 10217 10211 10206 10208 10213 10216 10213 10211 10214 10219 10220 10215 10213 10216 10222 10223 10221 10217 10215 10217 10218 10218 10217 10216 10217 10218 10218 10219 10220 10221 10222 10222 10223 10225 10228 10230 10233 10237 10240 10242 10245 10248 10250 10252 10254 10255 10256 10258 10260 10262
10265 10262 10259 10255 10252 10249 10247 10244 10240 10238 10236 10233 10230 10228 10226 10224 10222 10220 10219 10217 10217 10216 10216 10215 10214 10212 10212 10212 10213 10213 10212 10208 10205 10203 10203 10203 10202 10199 10195 10194 10198 10201 10200 10197 10198 10202 10206 10205 10202 10202 10205 10208 10208 10206 10203 10203 10204 10204 10203 10202 10202 10203 10204 10205 10206 10207 10208 10208 10208 10210 10213 10217 10219 10222 10225 10228 10232 10235 10237 10239 10242 10243 10245 10247 10249 10250
10254 10250 10247 10244 10241 10238 10235 10232 10230 10227 10224 10221 10218 10215 10213 10211 10209 10207 10204 10203 10202 10201 10200 10200 10199 10198 10198 10197 10197 10197 10196 10193 10191 10188 10188 10188 10188 10185 10182 10181 10183 10185 10186 10184 10183 10185 10188 10190 10191 10191 10191 10192 10193 10193 10192 10191 10190 10188 10187 10187 10188 10188 10189 10190 10191 10193 10193 10193 10193 10196 10199 10202 10205 10208 10211 10215 10217 10220 10223 10226 10228 10230 10232 10235 10237 10240
10241 10237 10234 10232 10228 10226 10223 10220 10217 10215 10213 10210 10207 10203 10201 10199 10196 10193 10191 10189 10188 10187 10185 10185 10184 10184 10183 10183 10182 10180 10178 10177 10175 10173 10174 10174 10173 10170 10168 10167 10168 10170 10171 10170 10170 10170 10171 10173 10175 10177 10178 10179 10180 10179 10178 10178 10177 10175 10173 10172 10173 10173 10174 10175 10175 10177 10178 10178 10179 10182 10185 10188 10190 10193 10197 10200 10203 10206 10209 10212 10215 10217 10219 10222 10225 10228
10228 10225 10221 10218 10216 10213 10211 10208 10205 10202 10200 10197 10194 10191 10189 10187 10184 10182 10180 10178 10176 10173 10172 10170 10169 10168 10168 10168 10168 10167 10164 10161 10159 10158 10158 10159 10158 10156 10155 10155 10155 10155 10156 10157 10157 10156 10155 10157 10160 10163 10163 10165 10165 10164 10163 10162 10162 10161 10160 10158 10157 10158 10160 10160 10160 10161 10162 10163 10165 10167 10170 10173 10176 10178 10182 10185 10188 10192 10195 10198 10200 10203 10205 10208 10211 10215
10215 10212 10208 10205 10203 10201 10198 10195 10192 10189 10187 10185 10182 10179 10176 10173 10172 10169 10167 10164 10162 10160 10158 10157 10155 10154 10154 10153 10153 10153 10151 10148 10146 10144 10143 10143 10143 10143 10142 10142 10142 10141 10142 10143 10143 10142 10141 10142 10145 10147 10148 10148 10148 10148 10147 10145 10145 10146 10146 10144 10142 10143 10145 10146 10146 10145 10146 10148 10150 10153 10155 10158 10161 10164 10167 10170 10173 10177 10180 10183 10185 10188 10191 10194 10198 10202
10203 10200 10197 10193 10190 10188 10187 10183 10180 10177 10174 10172 10170 10167 10163 10161 10158 10157 10154 10152 10150 10148 10146 10145 10143 10142 10141 10140 10139 10138 10137 10135 10133 10132 10130 10129 10129 10129 10129 10129 10128 10128 10127 10128 10129 10129 10128 10128 10130 10130 10131 10131 10132 10132 10132 10131 10130 10130 10130 10129 10128 10129 10130 10131 10131 10130 10132 10134 10137 10139 10141 10144 10147 10150 10152 10155 10158 10162 10166 10168 10171 10173 10177 10180 10184 10188
10190 10187 10184 10181 10178 10176 10173 10171 10167 10164 10162 10159 10157 10154 10151 10148 10147 10144 10142 10140 10138 10136 10134 10132 10131 10130 10128 10127 10125 10124 10123 10122 10120 10119 10118 10117 10116 10116 10116 10116 10115 10115 10114 10114 10115 10115 10115 10115 10115 10115 10115 10115 10115 10116 10117 10117 10116 10115 10115 10115 10115 10116 10117 10116 10115 10116 10118 10121 10124 10126 10128 10130 10133 10136 10138 10142 10145 10148 10152 10154 10157 10160 10164 10168 10172 10175
10178 10175 10172 10168 10166 10163 10161 10158 10155 10152 10149 10147 10145 10142 10139 10137 10135 10132 10130 10127 10125 10124 10122 10121 10119 10118 10116 10114 10112 10110 10109 10108 10107 10107 10105 10105 10103 10103 10103 10103 10103 10102 10101 10101 10101 10102 10102 10101 10100 10101 10101 10102 10102 10102 10102 10102 10102 10102 10102 10102 10102 10102 10101 10101 10102 10103 10106 10108 10112 10114 10116 10118 10120 10123 10126 10128 10132 10135 10138 10142 10145 10148 10152 10156 10160 10163
10166 10163 10160 10157 10154 10152 10149 10146 10143 10140 10138 10135 10132 10130 10127 10125 10123 10120 10118 10115 10113 10112 10110 10109 10108 10106 10104 10102 10100 10098 10097 10096 10095 10094 10093 10092 10092 10091 10091 10091 10090 10090 10089 10088 10088 10088 10088 10088 10088 10088 10088 10088 10088 10088 10088 10088 10088 10088 10089 10089 10088 10088 10087 10088 10090 10092 10094 10096 10099 10102 10105 10107 10108 10111 10114 10117 10120 10123 10127 10130 10133 10137 10140 10144 10148 10151
10154 10151 10148 10145 10142 10140 10137 10134 10132 10129 10127 10123 10121 10118 10116 10113 10112 10109 10107 10104 10102 10100 10099 10098 10097 10095 10092 10090 10087 10086 10085 10084 10083 10082 10082 10081 10080 10080 10079 10079 10079 10078 10078 10077 10076 10075 10075 10075 10075 10075 10075 10076 10077 10077 10076 10075 10075 10075 10076 10076 10076 10076 10077 10077 10078 10080 10082 10085 10088 10092 10094 10096 10098 10100 10103 10105 10108 10112 10116 10119 10123 10125 10128 10132 10135 10139
10143 10140 10137 10134 10131 10128 10125 10123 10120 10118 10115 10113 10110 10108 10105 10103 10101 10098 10096 10093 10091 10089 10088 10087 10085 10083 10081 10078 10075 10074 10073 10073 10073 10072 10070 10069 10068 10068 10068 10068 10067 10067 10067 10067 10065 10063 10063 10063 10064 10063 10063 10064 10065 10065 10064 10063 10062 10063 10063 10064 10065 10066 10067 10065 10066 10068 10072 10075 10078 10081 10083 10085 10087 10090 10092 10095 10099 10102 10105 10108 10112 10114 10117 10120 10123 10127
10132 10129 10126 10123 10120 10118 10115 10112 10110 10107 10105 10102 10100 10097 10095 10093 10090 10088 10086 10083 10081 10079 10077 10076 10074 10073 10070 10068 10065 10063 10063 10062 10061 10060 10059 10059 10058 10058 10058 10057 10057 10056 10056 10056 10055 10053 10053 10053 10053 10052 10052 10053 10054 10054 10053 10052 10052 10052 10052 10053 10055 10056 10056 10055 10056 10059 10063 10065 10068 10071 10073 10075 10078 10080 10083 10086 10088 10092 10094 10097 10100 10102 10105 10108 10112 10115
10121 10118 10115 10113 10110 10107 10105 10102 10099 10097 10095 10092 10090 10087 10085 10083 10080 10078 10076 10073 10072 10069 10067 10066 10064 10062 10059 10057 10055 10054 10052 10051 10050 10050 10050 10049 10049 10048 10048 10047 10047 10046 10046 10045 10045 10044 10043 10043 10042 10042 10042 10043 10043 10043 10042 10042 10041 10041 10042 10043 10045 10046 10046 10046 10047 10050 10052 10055 10058 10061 10063 10066 10068 10071 10073 10076 10078 10080 10083 10086 10088 10092 10094 10097 10101 10104
10111 10108 10105 10103 10100 10097 10095 10092 10090 10087 10085 10082 10080 10078 10075 10073 10071 10069 10067 10065 10062 10060 10058 10056 10054 10052 10049 10047 10046 10045 10043 10041 10040 10040 10040 10040 10040 10039 10038 10038 10037 10037 10036 10036 10035 10035 10035 10033 10032 10032 10032 10033 10033 10032 10032 10032 10032 10032 10032 10033 10035 10037 10037 10038 10039 10040 10043 10046 10049 10052 10054 10057 10060 10062 10063 10066 10068 10070 10073 10075 10078 10081 10083 10087 10090 10094
10102 10099 10096 10093 10091 10088 10085 10083 10080 10078 10075 10073 10071 10068 10067 10064 10062 10060 10058 10055 10053 10051 10048 10047 10045 10043 10040 10038 10037 10035 10033 10032 10031 10030 10031 10030 10030 10030 10029 10028 10028 10028 10027 10027 10026 10025 10025 10024 10023 10023 10023 10023 10023 10023 10023 10023 10023 10023 10024 10025 10027 10028 10028 10029 10030 10032 10035 10037 10040 10043 10046 10049 10051 10053 10054 10056 10058 10060 10063 10065 10068 10071 10074 10077 10081 10084
10093 10090 10087 10085 10082 10079 10077 10074 10072 10069 10067 10064 10062 10060 10058 10055 10053 10051 10048 10047 10045 10042 10040 10038 10035 10033 10032 10030 10028 10027 10025 10023 10022 10022 10022 10022 10022 10021 10020 10020 10020 10019 10018 10018 10017 10017 10016 10015 10015 10015 10014 10014 10014 10014 10014 10015 10016 10016 10017 10017 10018 10020 10020 10021 10022 10024 10027 10029 10032 10035 10038 10040 10042 10044 10045 10047 10049 10051 10053 10056 10059 10062 10065 10068 10072 10075
10084 10082 10078 10076 10073 10070 10068 10065 10063 10060 10058 10055 10053 10051 10048 10047 10045 10043 10040 10038 10036 10033 10032 10029 10027 10025 10023 10021 10020 10018 10017 10015 10015 10014 10013 10013 10013 10012 10012 10012 10011 10010 10010 10010 10009 10008 10008 10007 10007 10007 10006 10007 10007 10007 10007 10008 10008 10008 10009 10010 10010 10011 10012 10012 10014 10017 10019 10022 10024 10027 10030 10032 10034 10036 10038 10039 10040 10042 10045 10048 10050 10053 10057 10060 10063 10067
10076 10073 10070 10068 10065 10062 10060 10057 10055 10052 10050 10047 10045 10042 10040 10038 10037 10035 10032 10030 10028 10025 10023 10021 10019 10017 10015 10013 10012 10010 10009 10008 10007 10006 10005 10005 10005 10004 10003 10003 10003 10002 10002 10002 10001 10000 10000 9999 9998 9998 9998 9999 9999 10000 10000 10000 10000 10001 10001 10002 10002 10002 10003 10005 10007 10009 10012 10014 10017 10019 10022 10024 10026 10028 10030 10032 10032 10034 10037 10040 10043 10046 10049 10052 10056 10059
10068 10065 10063 10060 10057 10055 10052 10049 10047 10044 10042 10039 10037 10035 10033 10030 10028 10027 10025 10022 10020 10018 10015 10013 10012 10010 10008 10006 10005 10003 10002 10001 10000 9998 9998 9997 9997 9997 9996 9995 9995 9995 9994 9993 9993 9993 9992 9992 9991 9991 9991 9992 9993 9993 9993 9993 9993 9993 9993 9993 9994 9995 9996 9997 9999 10002 10004 10007 10009 10012 10014 10017 10018 10021 10023 10024 10025 10027 10030 10032 10035 10038 10042 10045 10049 10052